Date,TemperatureHighF,TemperatureAvgF,TemperatureLowF,DewpointHighF,DewpointAvgF,DewpointLowF,HumidityHigh,HumidityAvg,HumidityLow,PressureMaxIn,PressureMinIn,WindSpeedMaxMPH,WindSpeedAvgMPH,GustSpeedMaxMPH,PrecipitationSumIn
2013-1-1,37,32,21,27,18,7,73,58,45,29.97,29.68,18,4,14,0.00
2013-1-2,31,22,14,15,10,6,87,60,46,30.12,29.84,20,2,14,0.00
2013-1-3,27,18,8,16,4,-10,91,57,25,30.18,29.94,15,1,17,0.00
2013-1-4,38,27,12,24,18,8,91,70,53,30.04,29.77,14,2,14,0.01
2013-1-5,41,33,22,24,20,18,89,62,42,30.28,29.81,10,2,15,0.02
2013-1-6,43,32,24,37,26,20,94,81,55,30.24,29.86,9,1,7,0.00
2013-1-7,40,30,20,30,21,14,95,75,37,30.42,29.91,16,1,14,0.01
2013-1-8,47,32,16,31,25,14,94,77,50,30.41,30.21,17,2,13,0.00
2013-1-9,44,35,23,37,30,22,96,83,66,30.40,29.97,11,1,9,0.00
2013-1-10,46,40,28,33,24,21,88,55,38,30.54,30.02,24,4,22,0.00
2013-1-11,40,33,23,39,29,21,96,86,66,30.54,30.10,6,0,8,0.16
2013-1-12,45,42,39,44,41,38,97,97,95,30.21,30.05,2,0,4,0.03
2013-1-13,51,46,41,49,45,40,98,96,90,30.17,29.93,10,2,8,0.01
2013-1-14,59,50,38,54,43,28,98,80,45,30.27,29.81,17,2,14,0.02
2013-1-15,41,37,33,35,30,25,94,76,55,30.33,30.13,9,1,8,0.05
2013-1-16,35,33,31,34,31,25,97,92,71,30.25,29.71,9,0,9,0.00
2013-1-17,41,35,30,33,27,14,97,74,49,30.11,29.77,16,2,16,0.37
2013-1-18,31,24,16,18,4,-6,76,43,27,30.49,29.94,22,4,20,0.01
2013-1-19,46,36,18,34,24,8,76,62,46,30.42,29.93,11,4,19,0.00
2013-1-20,53,42,28,34,26,8,76,54,28,29.97,29.52,22,5,18,0.00
2013-1-21,28,26,20,26,13,4,92,61,39,30.11,29.71,13,2,13,0.00
2013-1-22,25,20,13,22,4,-7,93,54,27,30.12,29.67,21,4,18,0.00
2013-1-23,16,12,8,-1,-7,-12,65,43,32,30.19,30.01,22,4,17,0.00
2013-1-24,20,11,0,0,-8,-12,78,44,25,30.29,30.03,27,4,20,0.00
2013-1-25,24,17,10,16,-3,-10,85,42,27,30.35,29.97,12,2,13,0.00
2013-1-26,27,18,10,26,6,-3,94,61,32,30.29,29.92,18,3,14,0.00
2013-1-27,31,21,9,15,2,-2,86,48,23,30.49,30.19,20,2,12,0.00
2013-1-28,32,26,15,30,20,2,94,80,32,30.48,29.92,8,0,6,0.00
2013-1-29,37,33,29,35,31,27,96,91,85,30.20,29.92,7,1,6,0.14
2013-1-30,58,50,35,56,49,34,100,96,91,30.16,29.39,21,5,18,0.05
2013-1-31,60,48,31,58,35,11,95,64,32,29.64,28.93,36,9,27,0.42
2013-2-1,31,27,21,15,8,0,56,45,29,30.14,29.60,19,5,18,0.00
2013-2-2,30,25,17,17,9,4,73,51,35,30.28,29.98,16,3,15,0.00
2013-2-3,30,25,19,22,18,15,92,72,57,30.08,29.67,9,1,9,0.00
2013-2-4,31,24,19,22,11,4,93,58,33,29.98,29.67,17,2,14,0.00
2013-2-5,38,25,21,36,19,10,95,79,59,30.03,29.84,5,0,5,0.00
2013-2-6,38,30,25,26,18,2,93,64,32,30.33,29.83,14,2,16,0.03
2013-2-7,33,26,16,24,8,2,93,48,32,30.53,30.24,10,1,10,0.00
2013-2-8,33,29,20,31,25,8,97,85,50,30.47,29.45,30,5,25,0.00
2013-2-9,23,19,14,21,17,12,95,91,89,30.24,29.46,28,9,31,0.00
2013-2-10,32,20,4,32,18,-1,97,92,82,30.43,30.15,11,1,12,0.02
2013-2-11,46,33,16,46,32,13,98,95,89,30.38,29.55,7,1,7,0.25
2013-2-12,45,39,31,42,30,22,98,72,49,29.93,29.56,18,3,15,0.00
2013-2-13,43,37,32,31,24,20,80,60,44,29.90,29.59,18,1,12,0.00
2013-2-14,45,35,25,32,24,18,95,68,35,30.01,29.63,13,1,13,0.01
2013-2-15,49,38,26,36,33,23,95,81,58,30.03,29.83,12,2,12,0.00
2013-2-16,37,34,30,33,29,20,96,81,63,29.95,29.59,17,3,14,0.01
2013-2-17,30,22,16,23,7,-1,88,54,31,29.79,29.38,29,8,24,0.00
2013-2-18,31,22,14,12,-1,-6,66,37,22,30.21,29.76,25,5,21,0.00
2013-2-19,47,35,17,45,28,7,96,77,52,30.22,29.56,16,2,14,0.16
2013-2-20,41,32,26,39,17,8,95,56,37,29.85,29.51,22,5,23,0.01
2013-2-21,32,27,24,16,13,10,66,54,43,30.26,29.75,24,5,19,0.00
2013-2-22,41,32,21,28,20,16,85,62,44,30.39,30.16,15,2,13,0.00
2013-2-23,38,35,32,34,30,24,94,82,71,30.33,29.84,10,1,9,0.28
2013-2-24,37,35,33,36,34,32,95,93,91,29.90,29.60,16,3,12,0.32
2013-2-25,41,36,30,37,31,28,95,81,66,30.25,29.85,12,1,10,0.01
2013-2-26,43,38,33,38,30,25,96,75,53,30.33,30.09,11,1,7,0.00
2013-2-27,44,41,36,42,39,30,95,92,79,30.11,29.50,27,4,20,0.76
2013-2-28,46,39,34,40,36,33,97,90,75,29.64,29.45,4,0,4,0.01
2013-3-1,47,39,32,38,29,25,97,69,44,29.70,29.46,19,3,16,0.00
2013-3-2,40,37,34,30,26,24,82,63,57,29.70,29.55,13,2,13,0.00
2013-3-3,39,34,32,28,25,21,86,69,58,29.67,29.50,12,2,12,0.00
2013-3-4,39,33,28,25,21,19,77,62,50,29.79,29.55,18,5,17,0.00
2013-3-5,47,37,29,30,25,20,87,62,48,30.08,29.74,13,2,13,0.00
2013-3-6,42,37,31,37,33,28,95,85,68,30.04,29.89,28,5,27,0.09
2013-3-7,37,34,31,31,29,26,94,83,70,30.01,29.85,31,8,26,0.00
2013-3-8,36,32,30,34,31,28,96,94,89,30.14,29.83,29,5,19,0.00
2013-3-9,53,39,28,30,23,13,91,60,21,30.35,30.05,16,3,20,0.42
2013-3-10,52,38,26,34,29,24,95,74,43,30.40,30.21,6,1,7,0.00
2013-3-11,54,43,36,42,37,32,92,80,56,30.34,30.09,13,2,12,0.00
2013-3-12,58,52,42,54,49,40,97,88,72,30.16,29.64,19,4,14,0.48
2013-3-13,50,42,31,44,29,20,89,60,32,29.81,29.64,17,3,15,0.00
2013-3-14,34,30,25,28,16,7,89,56,34,29.87,29.67,25,4,25,0.00
2013-3-15,43,32,24,31,16,2,88,53,28,29.91,29.59,19,3,15,0.00
2013-3-16,39,34,29,30,16,7,88,47,28,29.89,29.67,9,1,10,0.00
2013-3-17,38,32,24,22,11,2,79,45,23,30.31,29.81,22,3,17,0.00
2013-3-18,39,30,19,28,9,-2,92,45,19,30.45,30.15,11,1,10,0.00
2013-3-19,38,34,30,36,32,27,93,91,86,30.19,29.51,18,3,15,0.44
2013-3-20,40,33,26,30,20,15,92,62,38,29.83,29.67,17,3,17,0.01
2013-3-21,37,31,25,29,24,16,92,76,51,29.84,29.53,13,2,10,0.00
2013-3-22,41,33,25,24,17,13,76,52,40,29.80,29.56,15,3,15,0.00
2013-3-23,42,36,30,27,20,15,79,52,34,29.84,29.62,23,5,22,0.00
2013-3-24,48,39,28,29,22,18,80,53,34,29.87,29.63,16,2,12,0.00
2013-3-25,45,38,31,32,28,25,88,70,52,29.78,29.38,23,4,22,0.00
2013-3-26,46,39,28,35,26,21,87,62,40,29.82,29.47,18,2,12,0.00
2013-3-27,53,40,25,32,26,20,96,63,29,29.89,29.68,20,2,15,0.00
2013-3-28,50,44,37,40,31,26,89,64,40,30.05,29.80,15,3,15,0.00
2013-3-29,58,46,32,38,30,24,97,60,28,30.08,29.90,13,2,9,0.00
2013-3-30,57,47,35,37,23,13,88,44,18,30.12,29.93,16,2,15,0.00
2013-3-31,58,44,28,44,29,22,93,60,26,30.14,29.69,20,3,17,0.03
2013-4-1,61,47,35,46,38,16,96,72,43,29.84,29.45,22,4,19,0.22
2013-4-2,42,34,27,21,13,6,76,43,24,30.00,29.78,21,4,20,0.00
2013-4-3,45,37,31,16,12,8,55,37,23,30.23,29.90,26,6,24,0.00
2013-4-4,55,40,26,31,19,10,78,46,21,30.35,30.04,14,3,13,0.00
2013-4-5,60,46,37,34,27,14,80,52,18,30.09,29.56,20,3,20,0.00
2013-4-6,48,40,32,26,12,3,69,35,16,30.34,29.88,20,4,18,0.00
2013-4-7,54,42,26,42,30,19,91,65,33,30.34,29.97,26,5,24,0.00
2013-4-8,69,55,42,45,40,33,96,62,28,30.08,29.89,13,2,11,0.00
2013-4-9,75,60,48,53,44,38,97,62,29,30.08,29.78,20,3,20,0.00
2013-4-10,69,55,48,51,47,41,95,77,52,30.00,29.77,12,2,9,0.35
2013-4-11,58,52,46,49,42,27,96,71,41,30.13,29.73,14,2,13,0.01
2013-4-12,46,41,39,38,34,29,93,79,53,30.13,29.69,16,3,21,0.27
2013-4-13,54,46,37,39,35,32,91,69,44,29.95,29.63,14,3,16,0.03
2013-4-14,52,45,34,41,31,22,94,62,35,30.24,29.86,20,3,18,0.00
2013-4-15,61,45,31,37,31,26,95,61,33,30.42,30.15,12,1,13,0.00
2013-4-16,62,50,34,50,42,33,97,77,51,30.42,30.07,21,5,19,0.00
2013-4-17,69,59,45,53,39,27,93,53,23,30.34,30.02,16,3,13,0.02
2013-4-18,64,51,37,48,36,25,94,62,28,30.41,30.13,17,2,15,0.00
2013-4-19,71,61,53,62,58,48,97,91,70,30.16,29.65,20,5,20,0.01
2013-4-20,63,54,44,63,40,24,100,63,32,30.26,29.54,14,4,16,0.51
2013-4-21,55,45,34,35,22,17,80,42,23,30.68,30.25,16,3,17,0.00
2013-4-22,56,44,32,35,29,22,93,60,30,30.72,30.50,22,3,15,0.00
2013-4-23,44,42,39,41,37,30,92,85,69,30.58,30.07,22,4,17,0.00
2013-4-24,74,54,42,48,43,36,93,69,28,30.08,29.76,18,5,16,0.00
2013-4-25,64,54,41,52,35,19,95,54,20,30.28,29.80,21,3,17,0.03
2013-4-26,66,51,35,42,33,29,94,55,27,30.42,30.20,14,1,11,0.00
2013-4-27,65,50,37,43,38,34,96,67,32,30.43,30.27,7,1,9,0.00
2013-4-28,70,53,35,42,32,23,96,54,25,30.36,30.15,12,2,12,0.00
2013-4-29,67,55,45,47,35,20,95,52,22,30.30,30.14,14,2,15,0.00
2013-4-30,73,58,44,43,29,21,89,38,17,30.37,30.17,13,1,10,0.00
2013-5-1,74,56,36,44,37,31,87,54,27,30.49,30.30,11,1,8,0.00
2013-5-2,79,59,40,45,40,36,96,57,24,30.47,30.24,19,2,13,0.00
2013-5-3,65,54,42,44,40,36,85,62,46,30.50,30.28,19,2,16,0.00
2013-5-4,68,52,40,44,34,15,93,58,17,30.39,30.18,17,2,14,0.00
2013-5-5,69,52,35,44,38,34,95,65,31,30.33,30.12,13,2,9,0.00
2013-5-6,74,58,46,50,45,41,89,65,33,30.29,30.05,11,1,9,0.00
2013-5-7,78,61,43,57,51,42,96,71,44,30.20,30.01,12,1,9,0.00
2013-5-8,70,61,53,64,58,52,96,90,71,30.18,29.96,16,1,16,0.02
2013-5-9,69,61,55,61,58,54,97,92,67,30.05,29.78,6,0,4,0.18
2013-5-10,81,67,56,60,55,48,97,70,33,29.98,29.82,9,1,8,0.01
2013-5-11,69,61,57,62,59,54,97,91,74,29.95,29.63,13,2,10,0.20
2013-5-12,73,62,50,60,51,29,97,71,38,29.86,29.50,17,1,16,0.02
2013-5-13,60,50,37,36,30,25,90,50,28,30.06,29.80,13,2,12,0.00
2013-5-14,58,48,33,38,30,24,94,55,29,30.09,29.92,13,1,11,0.00
2013-5-15,64,50,32,53,42,31,96,78,35,30.10,29.63,14,2,14,0.03
2013-5-16,83,65,45,53,46,35,97,60,20,29.83,29.57,15,2,15,0.00
2013-5-17,72,59,45,51,43,35,93,60,28,30.24,29.76,17,2,16,0.00
2013-5-18,72,58,42,51,45,33,97,66,26,30.33,30.15,9,1,7,0.00
2013-5-19,68,56,45,56,51,44,97,85,55,30.37,30.16,7,1,7,0.16
2013-5-20,83,68,56,67,62,56,97,82,53,30.23,29.84,7,0,7,0.01
2013-5-21,88,69,55,73,63,53,97,84,51,29.99,29.73,21,1,14,0.67
2013-5-22,78,63,52,70,60,50,97,90,73,30.03,29.76,15,1,14,0.05
2013-5-23,75,67,64,68,64,62,97,92,78,29.93,29.77,13,2,11,0.20
2013-5-24,72,63,48,66,59,45,97,89,77,29.86,29.58,19,2,14,0.33
2013-5-25,51,47,43,47,44,38,95,88,80,29.85,29.66,22,4,21,0.14
2013-5-26,60,50,42,45,40,37,93,72,49,30.17,29.70,23,3,18,0.01
2013-5-27,74,58,38,48,39,32,97,58,23,30.20,30.00,15,1,16,0.00
2013-5-28,75,60,43,57,47,38,96,68,29,30.24,30.09,6,0,5,0.00
2013-5-29,78,65,58,67,62,56,97,88,68,30.20,29.91,13,0,11,0.62
2013-5-30,91,76,61,72,66,61,98,76,42,30.12,29.93,11,0,7,0.06
2013-5-31,94,79,64,71,66,62,97,69,40,30.12,29.89,9,1,10,0.00
2013-6-1,91,76,63,70,66,62,96,72,44,30.02,29.81,11,1,11,0.00
2013-6-2,86,74,66,70,66,63,92,77,54,29.94,29.69,18,2,10,0.00
2013-6-3,77,68,64,69,65,55,97,90,73,29.86,29.69,6,0,6,0.59
2013-6-4,80,63,47,60,47,39,92,58,34,30.10,29.80,10,0,10,0.13
2013-6-5,76,63,50,52,48,43,91,62,35,30.20,30.02,7,1,6,0.28
2013-6-6,73,61,49,58,52,48,94,75,49,30.20,30.02,11,0,5,0.01
2013-6-7,61,58,55,59,56,53,94,93,90,30.10,29.73,19,1,11,2.46
2013-6-8,80,65,54,64,58,53,95,80,54,30.04,29.51,13,2,10,0.89
2013-6-9,81,68,55,61,57,53,96,69,42,30.19,29.97,10,1,7,0.00
2013-6-10,73,63,55,63,59,53,96,85,57,30.21,29.92,9,1,8,0.52
2013-6-11,78,64,59,67,61,57,97,91,66,29.97,29.46,8,0,7,1.25
2013-6-12,72,64,55,61,54,51,97,71,50,29.84,29.51,24,3,19,0.01
2013-6-13,62,56,49,58,54,48,97,93,85,29.84,29.57,10,1,14,0.57
2013-6-14,74,60,52,58,53,50,94,78,51,29.82,29.51,13,2,13,0.96
2013-6-15,80,66,50,55,49,40,97,62,27,29.98,29.75,14,1,14,0.00
2013-6-16,77,65,50,64,57,48,96,77,49,29.98,29.66,8,0,8,0.00
2013-6-17,86,70,58,67,62,57,96,78,43,29.93,29.71,23,1,13,0.06
2013-6-18,84,66,58,66,61,57,97,85,50,29.94,29.74,18,1,20,0.39
2013-6-19,77,65,54,58,52,40,95,67,29,30.17,29.80,15,2,13,0.00
2013-6-20,80,66,50,58,53,45,96,68,31,30.29,30.10,7,0,5,0.00
2013-6-21,84,70,55,65,59,54,96,72,50,30.30,30.12,8,0,8,0.00
2013-6-22,84,70,58,64,58,54,90,68,43,30.27,30.06,9,0,6,0.00
2013-6-23,88,75,62,70,66,61,95,76,46,30.21,29.96,11,1,10,0.00
2013-6-24,93,79,68,74,70,64,95,76,49,30.07,29.81,17,1,10,0.01
2013-6-25,91,77,66,74,69,64,96,78,48,29.98,29.67,9,0,7,0.02
2013-6-26,86,76,69,74,70,66,96,85,54,29.85,29.65,10,0,8,0.08
2013-6-27,77,72,68,71,68,66,96,90,79,29.85,29.65,7,1,9,0.01
2013-6-28,81,74,68,72,70,66,97,88,70,29.72,29.41,11,1,13,0.53
2013-6-29,82,75,70,71,69,67,97,84,64,29.74,29.42,10,1,8,0.01
2013-6-30,82,74,71,73,70,68,97,87,70,29.95,29.66,9,0,8,0.14
2013-7-1,82,74,71,74,72,70,97,94,77,30.10,29.86,10,0,5,0.05
2013-7-2,83,76,72,74,72,70,97,89,73,30.21,30.00,8,1,8,0.01
2013-7-3,88,77,71,75,72,70,96,84,63,30.24,30.08,9,1,8,0.01
2013-7-4,91,81,74,77,74,71,95,79,60,30.24,30.04,8,1,7,0.00
2013-7-5,93,82,72,76,73,71,95,77,52,30.20,29.98,8,1,7,0.00
2013-7-6,93,82,72,76,73,70,95,77,51,30.11,29.90,12,0,11,0.00
2013-7-7,92,81,71,77,74,70,96,80,55,30.05,29.82,8,0,6,0.00
2013-7-8,90,81,72,74,71,68,96,75,51,30.05,29.83,14,1,10,0.00
2013-7-9,83,74,69,73,69,66,95,86,67,30.10,29.93,7,0,6,0.00
2013-7-10,85,77,72,76,73,70,96,88,68,30.07,29.72,9,0,5,0.00
2013-7-11,82,76,70,75,73,69,96,90,76,29.93,29.71,4,0,5,0.74
2013-7-12,80,72,68,69,63,58,95,74,60,30.18,29.86,14,2,15,0.00
2013-7-13,79,73,66,75,69,61,96,88,79,30.32,30.09,6,0,5,0.01
2013-7-14,91,81,74,76,73,70,97,79,54,30.32,30.11,8,1,8,0.00
2013-7-15,93,82,73,75,73,69,96,75,48,30.23,30.01,10,1,10,0.00
2013-7-16,94,82,70,74,70,66,96,71,42,30.17,30.01,12,1,10,0.00
2013-7-17,93,81,70,76,72,66,96,76,44,30.19,29.95,6,0,6,0.00
2013-7-18,96,84,73,78,72,65,92,72,38,30.05,29.85,8,0,8,0.00
2013-7-19,97,85,75,80,75,73,96,76,48,29.97,29.66,11,1,11,0.00
2013-7-20,93,81,72,78,75,70,95,82,55,29.84,29.56,21,1,17,0.90
2013-7-21,84,75,67,71,68,65,95,80,57,29.99,29.75,7,0,5,0.01
2013-7-22,86,75,67,72,69,65,97,81,51,30.00,29.79,7,0,7,0.00
2013-7-23,88,76,72,77,73,70,97,91,67,29.87,29.45,7,0,6,1.01
2013-7-24,85,76,70,74,68,60,98,79,57,29.93,29.50,12,1,11,0.00
2013-7-25,70,61,58,60,56,50,97,84,66,30.09,29.86,12,2,10,1.82
2013-7-26,73,65,60,66,62,58,97,89,75,30.05,29.88,13,2,10,0.11
2013-7-27,83,72,61,68,64,60,98,80,50,30.07,29.91,8,0,4,0.00
2013-7-28,85,74,67,70,66,64,95,80,55,30.03,29.86,7,0,5,0.00
2013-7-29,86,75,66,73,70,65,95,85,62,30.06,29.88,7,0,7,0.02
2013-7-30,81,70,59,65,60,57,97,73,46,30.13,29.97,12,1,12,0.00
2013-7-31,82,70,57,66,61,56,97,75,45,30.15,29.96,7,0,6,0.00
2013-8-1,81,69,61,67,63,60,97,84,55,30.07,29.81,7,0,7,0.00
2013-8-2,83,72,65,68,64,60,97,77,49,29.90,29.71,10,1,7,0.12
2013-8-3,78,69,62,67,64,61,97,86,67,29.90,29.71,13,0,7,0.04
2013-8-4,80,67,56,62,58,55,98,77,46,29.93,29.71,14,1,11,0.03
2013-8-5,75,64,52,56,51,44,97,68,35,30.07,29.83,15,2,13,0.00
2013-8-6,80,65,50,58,54,49,96,71,37,30.17,29.99,6,0,4,0.00
2013-8-7,79,67,56,63,58,52,98,75,45,30.20,30.03,8,0,4,0.00
2013-8-8,79,72,66,72,68,61,96,87,75,30.14,29.94,5,0,6,0.01
2013-8-9,76,74,72,75,72,70,98,95,90,30.06,29.69,10,1,5,0.85
2013-8-10,81,73,60,73,64,55,98,74,48,30.04,29.75,11,1,10,0.00
2013-8-11,78,66,52,61,55,50,97,72,40,30.11,29.92,8,0,8,0.00
2013-8-12,79,69,59,66,62,58,97,80,56,30.06,29.85,5,0,4,0.00
2013-8-13,75,68,62,68,65,61,98,91,68,29.96,29.61,7,0,4,0.01
2013-8-14,72,66,57,65,55,51,97,71,50,30.01,29.61,22,2,14,0.00
2013-8-15,77,64,50,58,53,47,97,72,40,30.15,29.94,10,1,12,0.00
2013-8-16,79,66,52,60,56,50,98,74,38,30.23,30.04,9,0,5,0.00
2013-8-17,81,67,54,65,58,52,97,74,37,30.30,30.14,6,0,6,0.00
2013-8-18,79,66,58,65,60,54,97,82,46,30.29,30.03,5,0,4,0.00
2013-8-19,80,68,57,66,62,56,97,81,52,30.12,29.90,10,0,7,0.01
2013-8-20,84,71,59,67,63,58,97,77,44,30.13,29.92,9,0,7,0.00
2013-8-21,86,72,59,70,64,58,97,77,46,30.17,29.97,9,0,9,0.00
2013-8-22,80,72,63,73,69,62,98,92,78,30.07,29.78,6,0,4,0.03
2013-8-23,80,72,61,70,62,55,97,73,45,30.13,29.75,15,1,12,0.00
2013-8-24,77,65,54,58,52,45,94,67,33,30.37,30.07,11,1,10,0.00
2013-8-25,80,66,51,60,54,45,98,71,30,30.39,30.13,8,0,4,0.00
2013-8-26,79,68,60,68,63,58,97,84,63,30.23,29.84,7,0,7,0.12
2013-8-27,83,73,67,71,69,66,98,89,65,29.92,29.74,10,0,7,0.66
2013-8-28,85,73,67,72,69,66,98,87,56,29.94,29.76,7,0,5,0.00
2013-8-29,71,67,62,68,63,58,97,88,80,30.07,29.86,12,1,9,0.00
2013-8-30,79,68,60,70,64,57,97,87,69,30.05,29.77,7,0,4,0.00
2013-8-31,79,74,69,73,71,68,97,92,79,29.88,29.72,6,0,4,0.00
2013-9-1,80,74,70,75,72,68,98,93,83,29.90,29.71,7,0,4,0.20
2013-9-2,81,75,71,75,72,71,98,92,75,29.88,29.62,7,0,5,0.35
2013-9-3,78,71,60,72,68,60,98,92,70,29.86,29.61,7,0,3,0.11
2013-9-4,77,66,56,64,59,55,98,79,48,29.96,29.76,10,1,8,0.00
2013-9-5,74,62,50,64,56,48,98,81,49,30.16,29.80,12,1,9,0.05
2013-9-6,67,55,44,51,46,40,98,75,41,30.26,30.05,11,1,9,0.00
2013-9-7,75,60,44,60,52,44,98,76,44,30.14,29.83,7,0,5,0.00
2013-9-8,76,65,51,63,54,42,98,71,37,30.11,29.69,21,2,17,0.00
2013-9-9,68,56,42,52,46,40,97,74,42,30.26,30.04,5,0,3,0.00
2013-9-10,74,66,52,70,63,51,97,93,83,30.20,29.97,9,0,5,0.01
2013-9-11,90,78,68,79,73,68,98,86,64,30.11,29.89,6,0,6,0.00
2013-9-12,84,75,70,74,71,69,98,88,67,30.01,29.59,11,1,9,0.53
2013-9-13,78,70,61,69,64,55,98,84,62,29.79,29.51,12,1,10,0.05
2013-9-14,67,60,51,55,53,50,95,78,60,30.09,29.71,17,1,14,0.00
2013-9-15,69,57,46,54,50,44,98,80,44,30.19,29.99,8,0,6,0.00
2013-9-16,68,58,49,58,52,39,98,83,59,30.27,29.94,14,1,13,0.02
2013-9-17,61,51,39,47,40,35,96,69,40,30.44,30.23,15,2,12,0.00
2013-9-18,70,54,37,53,45,36,98,77,37,30.37,30.09,6,0,5,0.00
2013-9-19,75,58,42,58,50,41,98,79,43,30.20,29.97,5,0,5,0.00
2013-9-20,76,60,46,60,53,46,99,82,44,30.11,29.92,7,0,4,0.00
2013-9-21,75,64,54,67,61,53,99,88,65,30.06,29.68,13,1,10,0.00
2013-9-22,71,64,50,68,56,46,96,78,53,29.87,29.53,18,2,11,0.39
2013-9-23,63,52,43,50,45,40,96,77,53,30.04,29.79,15,2,11,0.00
2013-9-24,67,52,38,50,43,38,98,76,39,30.04,29.75,14,1,10,0.00
2013-9-25,69,56,41,56,48,40,97,76,53,29.99,29.79,15,1,13,0.00
2013-9-26,65,57,50,52,49,46,97,76,52,30.13,29.90,13,1,7,0.00
2013-9-27,66,58,49,55,52,48,97,82,60,30.29,30.05,11,1,8,0.00
2013-9-28,73,58,45,57,51,44,98,80,49,30.34,30.17,11,1,8,0.00
2013-9-29,68,55,44,55,48,41,98,79,39,30.28,30.03,9,0,5,0.00
2013-9-30,68,57,48,54,50,45,98,81,47,30.13,29.88,9,1,7,0.00
2013-10-1,76,59,42,61,51,41,98,79,42,29.99,29.78,14,1,13,0.00
2013-10-2,78,64,50,62,57,49,98,81,54,30.00,29.79,16,1,14,0.00
2013-10-3,76,60,47,56,51,41,98,77,31,30.11,29.93,6,0,4,0.00
2013-10-4,64,57,48,60,54,48,97,91,79,30.09,29.94,12,1,7,0.04
2013-10-5,73,64,58,64,60,56,98,89,70,30.13,29.97,9,0,5,0.07
2013-10-6,63,60,58,60,58,56,96,93,84,30.20,30.02,7,0,6,0.15
2013-10-7,77,67,58,71,64,56,98,91,74,30.12,29.75,22,2,14,0.13
2013-10-8,66,56,46,57,46,37,97,74,36,30.38,29.91,15,2,11,0.00
2013-10-9,63,52,42,46,44,40,94,75,47,30.45,30.27,17,1,13,0.00
2013-10-10,64,55,46,54,50,44,97,85,65,30.37,30.08,13,1,8,0.00
2013-10-11,70,60,52,58,53,44,95,79,62,30.17,29.99,14,1,10,0.00
2013-10-12,69,57,50,57,52,46,94,82,66,30.38,30.05,17,2,13,0.00
2013-10-13,60,54,44,50,48,42,94,79,66,30.44,30.25,13,1,11,0.00
2013-10-14,64,49,36,50,41,26,98,79,25,30.42,30.17,6,0,5,0.00
2013-10-15,71,56,43,53,48,42,98,78,46,30.30,30.07,8,0,4,0.00
2013-10-16,64,55,45,56,52,45,98,88,73,30.19,29.85,10,0,6,0.00
2013-10-17,71,61,52,62,58,50,98,89,68,29.94,29.67,7,0,9,0.01
2013-10-18,66,60,45,62,51,42,97,74,43,29.95,29.54,22,2,15,0.01
2013-10-19,64,52,38,50,43,37,97,75,43,30.01,29.70,9,0,8,0.00
2013-10-20,62,53,38,52,40,29,97,68,31,30.07,29.62,18,2,14,0.00
2013-10-21,67,49,32,45,38,32,97,71,36,30.16,29.93,9,0,9,0.00
2013-10-22,69,51,38,55,46,38,97,84,46,30.03,29.63,13,0,10,0.00
2013-10-23,50,43,34,42,38,33,98,84,57,29.83,29.51,5,0,4,0.01
2013-10-24,53,43,34,37,30,22,92,64,31,29.95,29.62,16,1,12,0.00
2013-10-25,50,38,28,35,29,26,96,71,40,30.20,29.86,18,1,10,0.00
2013-10-26,54,42,26,38,30,23,96,68,32,30.20,29.83,20,2,17,0.00
2013-10-27,55,47,32,40,34,28,93,63,38,30.11,29.75,15,2,12,0.01
2013-10-28,60,43,27,37,32,26,97,69,37,30.36,30.02,15,1,14,0.00
2013-10-29,51,40,32,33,26,23,92,59,34,30.45,30.26,9,1,9,0.00
2013-10-30,52,43,32,46,36,26,93,78,60,30.40,30.11,3,0,2,0.00
2013-10-31,63,49,34,61,47,33,98,93,81,30.27,29.82,17,2,12,0.07
2013-11-1,68,63,58,63,59,54,96,85,73,29.82,29.41,21,5,17,0.11
2013-11-2,68,57,47,54,46,38,97,71,37,29.75,29.50,8,0,8,0.07
2013-11-3,52,44,32,48,30,14,92,62,29,30.44,29.73,18,3,14,0.00
2013-11-4,44,34,26,28,18,10,88,54,28,30.73,30.40,16,1,12,0.00
2013-11-5,53,39,26,39,29,22,92,71,42,30.73,30.47,9,0,7,0.00
2013-11-6,60,49,34,52,42,33,96,80,54,30.54,30.04,13,2,12,0.00
2013-11-7,66,54,37,59,51,35,97,90,74,30.08,29.60,18,2,14,0.17
2013-11-8,48,39,30,37,29,21,97,71,43,30.15,29.78,23,2,22,0.01
2013-11-9,45,36,25,37,26,20,94,69,39,30.25,30.00,14,1,14,0.01
2013-11-10,58,45,38,45,38,32,97,77,43,30.04,29.66,20,2,16,0.02
2013-11-11,53,46,40,34,29,26,62,53,36,30.15,29.86,17,3,16,0.02
2013-11-12,50,37,28,39,25,15,88,63,45,30.22,29.81,21,3,18,0.06
2013-11-13,37,29,22,21,14,8,84,53,32,30.32,30.13,16,2,11,0.06
2013-11-14,51,40,27,26,19,15,67,46,28,30.23,29.99,12,2,9,0.00
2013-11-15,60,41,26,38,28,18,94,63,24,30.24,30.05,12,1,11,0.00
2013-11-16,60,44,32,39,35,30,96,75,39,30.34,30.15,10,0,8,0.00
2013-11-17,61,49,33,60,47,31,98,91,76,30.32,29.84,10,0,9,0.03
2013-11-18,66,60,49,62,47,31,97,65,33,29.85,29.47,17,4,14,0.19
2013-11-19,49,41,31,31,23,18,63,48,36,30.30,29.65,23,5,22,0.18
2013-11-20,43,32,23,23,15,6,88,51,23,30.65,30.27,17,3,13,0.00
2013-11-21,48,34,20,36,24,16,93,68,39,30.65,30.35,10,0,7,0.00
2013-11-22,51,45,38,50,42,32,98,91,77,30.41,29.79,8,0,5,0.16
2013-11-23,49,40,30,47,26,13,96,57,29,29.97,29.74,19,4,16,0.01
2013-11-24,30,24,20,18,2,-8,63,39,23,30.26,29.78,39,7,26,0.00
2013-11-25,33,26,16,18,4,-11,65,41,20,30.41,30.21,19,2,18,0.00
2013-11-26,44,37,29,43,25,18,97,64,43,30.35,30.00,10,1,8,0.12
2013-11-27,63,52,36,61,50,30,97,93,78,30.00,29.14,27,5,22,1.28
2013-11-28,37,30,24,30,15,5,78,54,33,30.48,29.54,24,4,21,0.01
2013-11-29,36,28,20,34,17,13,96,65,41,30.75,30.39,12,1,9,0.00
2013-11-30,35,26,15,28,16,10,90,68,40,30.79,30.40,10,1,9,0.00
2013-12-1,40,36,29,39,33,22,97,90,73,30.44,29.94,8,1,7,0.02
2013-12-2,43,38,32,39,36,31,97,93,83,30.03,29.83,5,0,5,0.02
2013-12-3,50,38,29,37,33,27,97,84,48,29.99,29.77,12,2,9,0.00
2013-12-4,50,35,26,36,30,25,97,83,50,30.21,29.92,5,0,3,0.00
2013-12-5,55,46,33,55,45,32,97,94,86,30.21,29.87,13,1,9,0.00
2013-12-6,55,48,38,54,46,36,98,91,79,30.14,29.80,13,2,10,0.34
2013-12-7,38,35,29,36,28,21,94,78,56,30.48,30.00,17,2,15,0.12
2013-12-8,32,28,21,25,20,15,94,70,52,30.62,30.38,8,0,9,0.01
2013-12-9,37,33,27,36,31,19,97,93,66,30.50,29.82,13,1,9,0.16
2013-12-10,36,32,24,34,30,20,97,94,84,30.06,29.72,11,0,10,0.16
2013-12-11,30,24,18,22,19,16,91,81,68,30.27,30.02,13,1,8,0.01
2013-12-12,24,19,10,20,9,1,91,68,38,30.31,30.07,19,1,15,0.01
2013-12-13,31,23,10,20,11,5,83,61,47,30.38,29.95,18,2,11,0.00
2013-12-14,28,18,14,26,10,3,93,71,53,30.59,30.08,12,2,9,0.00
2013-12-15,36,30,24,35,27,20,96,89,76,30.08,29.32,25,2,15,0.00
2013-12-16,29,23,12,24,12,4,92,65,36,30.23,29.70,19,2,15,0.00
2013-12-17,21,14,4,19,11,0,91,88,82,30.28,29.88,14,2,13,0.00
2013-12-18,34,26,19,22,19,15,90,76,55,30.13,29.79,16,2,15,0.01
2013-12-19,45,32,16,30,23,12,92,71,45,30.16,29.89,17,2,11,0.13
2013-12-20,52,40,29,37,33,27,96,78,53,30.14,29.86,10,2,9,0.08
2013-12-21,58,49,39,50,45,36,97,86,68,30.01,29.80,11,2,9,0.08
2013-12-22,64,60,52,60,56,49,94,88,79,29.97,29.68,19,4,12,0.00
2013-12-23,61,42,37,56,40,33,97,92,75,30.11,29.84,18,2,16,0.48
2013-12-24,40,34,27,33,22,12,79,62,46,30.25,29.96,14,3,11,0.48
2013-12-25,26,21,16,14,5,0,77,50,36,30.55,30.23,18,3,17,0.00
2013-12-26,34,28,20,31,21,11,90,77,65,30.50,30.02,13,1,12,0.00
2013-12-27,36,28,19,25,19,16,94,73,46,30.32,30.13,14,1,10,0.00
2013-12-28,49,33,21,30,24,18,94,72,38,30.26,29.94,17,1,10,0.01
2013-12-29,42,36,28,41,34,24,96,93,79,30.06,29.29,18,2,21,0.73
2013-12-30,39,32,19,37,23,8,97,72,39,30.18,29.57,20,2,15,0.01
2013-12-31,27,20,15,19,11,4,90,70,41,30.23,29.95,11,1,8,0.01
2014-1-1,30,24,15,23,9,4,81,55,34,30.40,30.19,12,1,10,0.00
2014-1-2,24,17,6,18,13,1,90,83,77,30.35,29.71,28,4,18,0.00